Weather in Myrne

Ukraine / Donetsk Region     48°51′59″N   37°32′48″E
temp.,
°C
wind,
m/s
gust,
m/s
humid.,
%
clouds,
%
prec.,
mm/h
press.,
hPa
HPBL,
m
12 may, wed
wed1200:00+7ene5109296 0.2 1015566
03:00+7e71188100 0.4 1015801
06:00+7e71285100 0.2 10161119
09:00+7e81288100 0.3 10171055
12:00+9e81182100 0.3 10161146
15:00+12se6972100 0.9 10151249
18:00+11sse7117963 1.1 1014711
21:00+8se5119458 1.6 1014317
13 may, thu
thu1300:00+7se38956 0.4 1014170
03:00+7se22978 0.4 101416
06:00+9ese2395100 0.0 101493
09:00+14sse247915 0.0 1014592
12:00+19s465757 0.0 10141579
15:00+22ssw475011 0.0 10131842
18:00+21ssw2462100 0.0 1013191
21:00+15se227519 0.0 101416
14 may, fri
fri1400:00+14ese228195 0.0 101324
03:00+13e339085 0.0 101229
06:00+14e388844 0.0 1012184
09:00+20sse5865100 0.0 1011569
12:00+24se565393 0.0 1011813
15:00+26sse5746100 0.0 10101455
18:00+25s4759100 0.0 1010284
21:00+19s3670100 0.0 101079
15 may, sat
sat1500:00+17sw4974100 0.0 1011166
03:00+14wsw2283100 0.1 101132
06:00+15wsw228178 0.0 101228
09:00+20wsw33610 0.1 1013548
12:00+23wsw34471 0.0 10131188
15:00+24sw3445100 0.0 10131816
18:00+24wsw23500 0.0 10131731
21:00+18wnw0064100 0.0 101311
16 may, sun
sun1600:00+16ne227062 0.0 101311
03:00+15ene22745 0.0 101311
06:00+15ne3677100 0.0 1012113
09:00+21ene5963100 0.0 1012492
12:00+26ene675551 0.0 10101288
15:00+27e775063 0.0 10081554
18:00+24e51058100 0.0 1007474
21:00+19ene387235 0.0 1006115